EN

Hourly Weather Bolshie Steblevichi

Today, 26 October, Monday

Time Temperature Precipitation Wind Pressure Humidity
00:00 +9°C° 0 mm 2 mps 752 mmHg 92%
01:00 +9°C° 0 mm 2 mps 752 mmHg 91%
02:00 +8°C° 0 mm 2 mps 752 mmHg 91%
03:00 +8°C° 0 mm 3 mps 752 mmHg 91%
04:00 +8°C° 0 mm 3 mps 751 mmHg 90%
05:00 +8°C° 0 mm 3 mps 751 mmHg 90%
06:00 +8°C° 0 mm 4 mps 751 mmHg 88%
07:00 +8°C° 0 mm 4 mps 751 mmHg 86%
08:00 +8°C° 0 mm 4 mps 751 mmHg 84%
09:00 +10°C° 0 mm 4 mps 751 mmHg 79%
10:00 +10°C° 0 mm 5 mps 751 mmHg 74%
11:00 +13°C° 0 mm 5 mps 751 mmHg 70%
12:00 +13°C° 0 mm 5 mps 751 mmHg 68%
13:00 +14°C° 0 mm 5 mps 751 mmHg 66%
14:00 +15°C° 0 mm 5 mps 750 mmHg 64%
15:00 +14°C° 0 mm 5 mps 750 mmHg 67%
16:00 +13°C° 0 mm 4 mps 750 mmHg 71%
17:00 +12°C° 0 mm 4 mps 750 mmHg 75%
18:00 +12°C° 0 mm 4 mps 750 mmHg 77%
19:00 +11°C° 0 mm 4 mps 750 mmHg 79%
20:00 +11°C° 0 mm 4 mps 750 mmHg 81%
21:00 +10°C° 0 mm 4 mps 750 mmHg 82%
22:00 +10°C° 0 mm 4 mps 750 mmHg 83%
23:00 +10°C° 0 mm 4 mps 750 mmHg 85%

Tomorrow, 27 October, Tuesday

Time Temperature Precipitation Wind Pressure Humidity
00:00 +10°C° 0 mm 4 mps 750 mmHg 85%
01:00 +10°C° 0 mm 4 mps 750 mmHg 86%
02:00 +8°C° 0 mm 4 mps 750 mmHg 87%
03:00 +8°C° 0 mm 4 mps 750 mmHg 88%
04:00 +8°C° 0 mm 4 mps 750 mmHg 88%
05:00 +8°C° 0 mm 4 mps 750 mmHg 89%
06:00 +8°C° 0 mm 4 mps 750 mmHg 88%
07:00 +8°C° 0 mm 4 mps 750 mmHg 88%
08:00 +8°C° 0 mm 4 mps 751 mmHg 87%
09:00 +10°C° 0 mm 4 mps 751 mmHg 82%
10:00 +12°C° 0 mm 4 mps 751 mmHg 77%
11:00 +13°C° 0 mm 4 mps 751 mmHg 72%
12:00 +14°C° 0 mm 4 mps 751 mmHg 70%
13:00 +15°C° 0 mm 4 mps 751 mmHg 68%
14:00 +15°C° 0 mm 4 mps 751 mmHg 67%
15:00 +14°C° 0 mm 4 mps 751 mmHg 71%
16:00 +13°C° 0 mm 4 mps 751 mmHg 75%
17:00 +12°C° 0 mm 3 mps 751 mmHg 80%
18:00 +12°C° 0 mm 3 mps 751 mmHg 81%
19:00 +11°C° 0 mm 4 mps 751 mmHg 82%
20:00 +11°C° 0 mm 4 mps 751 mmHg 83%
21:00 +11°C° 0 mm 4 mps 751 mmHg 84%
22:00 +10°C° 0 mm 4 mps 751 mmHg 84%
23:00 +10°C° 0 mm 3 mps 751 mmHg 85%

Day after tomorrow, 28 October, Wednesday

Time Temperature Precipitation Wind Pressure Humidity
00:00 +10°C° 0 mm 3 mps 751 mmHg 86%
01:00 +10°C° 0 mm 3 mps 751 mmHg 87%
02:00 +9°C° 0 mm 3 mps 751 mmHg 89%
03:00 +9°C° 0 mm 3 mps 751 mmHg 90%
04:00 +9°C° 0 mm 3 mps 751 mmHg 91%
05:00 +9°C° 0 mm 3 mps 751 mmHg 92%
06:00 +9°C° 0 mm 3 mps 751 mmHg 92%
07:00 +9°C° 0 mm 3 mps 751 mmHg 92%
08:00 +9°C° 0 mm 3 mps 751 mmHg 93%
09:00 +11°C° 0 mm 3 mps 751 mmHg 88%
10:00 +12°C° 0 mm 3 mps 751 mmHg 83%
11:00 +14°C° 0 mm 4 mps 751 mmHg 78%
12:00 +14°C° 0 mm 4 mps 751 mmHg 76%
13:00 +15°C° 0 mm 4 mps 751 mmHg 74%
14:00 +17°C° 0 mm 4 mps 751 mmHg 71%
15:00 +16°C° 0 mm 3 mps 751 mmHg 76%
16:00 +14°C° 0 mm 3 mps 751 mmHg 80%
17:00 +13°C° 0 mm 3 mps 751 mmHg 84%
18:00 +12°C° 0 mm 3 mps 751 mmHg 84%
19:00 +11°C° 0 mm 3 mps 751 mmHg 84%
20:00 +11°C° 0 mm 3 mps 751 mmHg 85%
21:00 +10°C° 0 mm 3 mps 751 mmHg 85%
22:00 +10°C° 0 mm 3 mps 752 mmHg 85%
23:00 +10°C° 0 mm 3 mps 752 mmHg 85%

29 October, Thursday

Time Temperature Precipitation Wind Pressure Humidity
00:00 +9°C° 0 mm 3 mps 751 mmHg 86%
01:00 +9°C° 0 mm 2 mps 751 mmHg 87%
02:00 +8°C° 0 mm 2 mps 751 mmHg 88%
03:00 +8°C° 0 mm 2 mps 751 mmHg 89%
04:00 +8°C° 0 mm 2 mps 751 mmHg 89%
05:00 +8°C° 0 mm 2 mps 751 mmHg 90%
06:00 +8°C° 0 mm 2 mps 751 mmHg 89%
07:00 +8°C° 0 mm 2 mps 751 mmHg 88%
08:00 +8°C° 0 mm 2 mps 751 mmHg 88%
09:00 +9°C° 0 mm 2 mps 751 mmHg 83%
10:00 +10°C° 0 mm 2 mps 751 mmHg 78%
11:00 +13°C° 0 mm 2 mps 752 mmHg 73%
12:00 +13°C° 0 mm 2 mps 751 mmHg 71%
13:00 +14°C° 0 mm 2 mps 751 mmHg 70%
14:00 +15°C° 0 mm 2 mps 751 mmHg 68%
15:00 +14°C° 0 mm 2 mps 751 mmHg 73%
16:00 +13°C° 0 mm 2 mps 751 mmHg 79%
17:00 +12°C° 0 mm 1 mps 751 mmHg 84%
18:00 +12°C° 0 mm 1 mps 751 mmHg 85%
19:00 +11°C° 0 mm 1 mps 751 mmHg 87%
20:00 +11°C° 0 mm 1 mps 752 mmHg 89%
21:00 +11°C° 0.3 mm 1 mps 752 mmHg 90%
22:00 +12°C° 0.3 mm 1 mps 752 mmHg 92%
23:00 +12°C° 0.3 mm 1 mps 752 mmHg 93%

30 October, Friday

Time Temperature Precipitation Wind Pressure Humidity
00:00 +12°C° 0.2 mm 1 mps 752 mmHg 93%
01:00 +12°C° 0.2 mm 1 mps 752 mmHg 92%
02:00 +12°C° 0.2 mm 1 mps 752 mmHg 91%
03:00 +11°C° 0 mm 1 mps 752 mmHg 90%
04:00 +11°C° 0 mm 1 mps 753 mmHg 90%
05:00 +11°C° 0 mm 1 mps 753 mmHg 90%
06:00 +10°C° 0 mm 1 mps 753 mmHg 90%
07:00 +10°C° 0 mm 1 mps 753 mmHg 91%
08:00 +9°C° 0 mm 2 mps 753 mmHg 91%
09:00 +10°C° 0 mm 2 mps 754 mmHg 85%
10:00 +12°C° 0 mm 2 mps 754 mmHg 78%
11:00 +12°C° 0 mm 3 mps 754 mmHg 72%
12:00 +13°C° 0 mm 3 mps 754 mmHg 69%
13:00 +13°C° 0 mm 3 mps 754 mmHg 66%
14:00 +14°C° 0 mm 3 mps 754 mmHg 64%
15:00 +13°C° 0 mm 3 mps 754 mmHg 69%
16:00 +12°C° 0 mm 3 mps 754 mmHg 73%
17:00 +10°C° 0 mm 2 mps 754 mmHg 78%
18:00 +10°C° 0 mm 2 mps 754 mmHg 80%
19:00 +10°C° 0 mm 2 mps 754 mmHg 82%
20:00 +9°C° 0 mm 2 mps 754 mmHg 84%
21:00 +9°C° 0 mm 2 mps 754 mmHg 85%
22:00 +9°C° 0 mm 2 mps 754 mmHg 86%
23:00 +9°C° 0 mm 2 mps 754 mmHg 87%

31 October, Saturday

Time Temperature Precipitation Wind Pressure Humidity
00:00 +9°C° 0 mm 3 mps 754 mmHg 87%
01:00 +9°C° 0 mm 3 mps 754 mmHg 86%
02:00 +10°C° 0 mm 3 mps 754 mmHg 85%
03:00 +9°C° 0 mm 3 mps 754 mmHg 87%
04:00 +9°C° 0 mm 3 mps 754 mmHg 89%
05:00 +9°C° 0 mm 2 mps 754 mmHg 91%
06:00 +9°C° 0 mm 2 mps 754 mmHg 91%
07:00 +9°C° 0 mm 2 mps 754 mmHg 92%
08:00 +9°C° 0 mm 3 mps 754 mmHg 92%
Show more